Tracking 19219 objects as of 19-Jul-2018
HD Live streaming from Space Station
objects crossing your sky now

FENGYUN 1C DEB

Track FENGYUN 1C DEB now!
10-day predictions


NORAD ID: 35203
Int'l Code: 1999-025DPK
Perigee: 797.0 km
Apogee: 1,623.1 km
Inclination: 102.1 °
Period: 109.5 minutes
Semi major axis: 7581 km
RCS: 0.0151 m2 (small)
Launch date: May 10, 1999
Source: People's Republic of China (PRC)
Launch site: Taiyaun Space Center, China (TSC)

Note: This is SATELLITE DEBRIS
aabbcc
Your satellite tracking list
Your tracking list is empty




NASA's NSSDC Master Catalog

Two Line Element Set (TLE):
1 35203U 99025DPK 18199.47760772  .00000570  00000-0  78545-3 0  9990
2 35203 102.0863  83.2143 0544817 219.0637 136.9917 13.15248387520693
Source of the keplerian elements: AFSPC